Location: Ocean City
(38.3360°N, 75.0850°W)
Time: 18:46:30
(UTC-04:00)

BEESAT 2 - Pass Details

Date: 20 May 2019
Orbit: 502 x 528 km, 64.9° (Epoch: 16 June)

Event Time Altitude Azimuth Distance (km) Brightness Sun altitude
Rises 20:58:55 0° 261° (W) 2,621 ? -9.3°
Reaches altitude 10° 21:02:29 10° 296° (WNW) 1,747 ? -9.8°
Maximum altitude 21:03:50 11° 317° (NW) 1,659 ? -10.0°
Drops below altitude 10° 21:05:12 10° 337° (NNW) 1,756 ? -10.3°
Sets 21:08:50 0° 12° (NNE) 2,656 ? -10.8°
